Dothan Regional Airport Dothan US
ICAO: KDHN
IATA: DHN
Category: Medium
Scheduled Services: Yes

Elevation: 401 ft
TransAlt. 18000 ft.

Airport Communications:
CAIRNS APP/DEP:125.4
ATIS:135.72
CTAF:118.4
GND:121.7
VFR ADVSY SVC:118.4
ANNISTON RDO:122.2
TWR:118.4
UNICOM:122.95

KDHN Zoom In..

If Map Doesn't Load, Click Here

Runways:

(A) RW 14 length 8499 ft width 150 ft
ILS 110.75 / hdg 138

(B) RW 18 length 5498 ft width 100 ft
---- / hdg 183

(C) RW 32 length 8499 ft width 150 ft
ILS 108.30 / hdg 318

(D) RW 36 length 5498 ft width 100 ft
---- / hdg 3

Location; KDHN
Day. 21 / Time. 12.53 Zulu
* Altimeter: 30.16
* Temperature: 24° c. 75.2°f.
* Wind from: 090° Speed 07 kn.
Dewpoint: 22° c.
Visibility: 10 Statute Miles.
Clouds: Clear (automated report).

KDHN 211253Z 09007KT 10SM CLR 24/22 A3016 RMK AO2 SLP209 T02440222


Wind From 090°
Speed 07 kn.

 
 
jpsmedia.com for Web Design worldairports.se 2018   terms of use